Elkins, WV

9:57 AM EDT on August 29, 2016 (GMT -0400)
Elkins-Randolph County

Weather History for KEKN - May, 2013

Change the Weather History Date:

Friday, May 17, 2013

  Actual Average Record
Temperature  
Mean Temperature 64 °F 58 °F  
Max Temperature 77 °F 71 °F 87 °F (1900)
Min Temperature 50 °F 46 °F 23 °F (1984)
Degree Days  
Heating Degree Days 1 7  
Month to date heating degree days 145 156  
Since 1 July heating degree days 5703 5719  
Cooling Degree Days 0 1  
Month to date cooling degree days 1 4  
Year to date cooling degree days 4 7  
Growing Degree Days 14 (Base 50)    
Moisture  
Dew Point 54 °F    
Average Humidity 70    
Maximum Humidity 100    
Minimum Humidity 40    
Precipitation  
Precipitation 0.01 in 0.17 in 1.27 in (2011)
Month to date precipitation 2.81 2.76  
Year to date precipitation 15.39 16.85  
Snow  
Snow 0.00 in - - ()
Month to date snowfall 0.0  
Since 1 September snowfall 77.5  
Snow Depth 0.00 in    
Sea Level Pressure  
Sea Level Pressure 30.11 in    
Wind  
Wind Speed 2 mph (South)    
Max Wind Speed 15 mph    
Max Gust Speed 21 mph    
Visibility 6 miles    
Events Fog    
T = Trace of Precipitation, MM = Missing Value Source: NWS Daily Summary

Daily Weather History Graph

Daily Weather History Graph

Search for Another Location

Airport or City:

Trip Planner

Search our weather history database for the weather conditions in past years. The results will help you decide how hot, cold, wet, or windy it might be!

Date:

Astronomy

May. 17, 2013 Rise Set
Actual Time 6:05 AM EDT 8:27 PM EDT
Civil Twilight 5:34 AM EDT 8:57 PM EDT
Nautical Twilight 4:57 AM EDT 9:34 PM EDT
Astronomical Twilight 4:16 AM EDT 10:16 PM EDT
Moon 12:34 PM EDT (5/17) 1:20 AM EDT (5/17)
Length of Visible Light 15h 22m
Length of Day
14h 22m
Waxing Crescent, 45% of the Moon is Illuminated
May 17
Waxing Crescent
May 18
First Quarter
May 25
Full
May 31
Last Quarter
Jun 8
New

Hourly Weather History & Observations

Time (EDT) Temp. Dew Point Humidity Pressure Visibility Wind Dir Wind Speed Gust Speed Precip Events Conditions
12:27 AM 53.6 °F 51.8 °F 94% 30.06 in 1.5 mi Calm Calm - N/A   Clear
12:40 AM 51.8 °F 51.8 °F 100% 30.07 in 3.0 mi Calm Calm - N/A   Clear
12:47 AM 53.6 °F 51.8 °F 94% 30.06 in 1.5 mi Calm Calm - N/A   Partly Cloudy
12:51 AM 53.1 °F 52.0 °F 96% 30.07 in 1.2 mi Calm Calm - N/A   Scattered Clouds
12:56 AM 53.6 °F 51.8 °F 94% 30.07 in 2.0 mi Calm Calm - N/A   Mostly Cloudy
1:03 AM 53.6 °F 53.6 °F 100% 30.07 in 6.0 mi Calm Calm - N/A   Mostly Cloudy
1:51 AM 57.0 °F 54.0 °F 89% 30.07 in 9.0 mi Calm Calm - N/A   Overcast
2:51 AM 55.9 °F 54.0 °F 93% 30.07 in 7.0 mi Calm Calm - N/A   Overcast
3:32 AM 55.4 °F 53.6 °F 94% 30.08 in 6.0 mi Calm Calm - N/A   Scattered Clouds
3:51 AM 53.1 °F 51.1 °F 93% 30.08 in 2.0 mi Calm Calm - N/A   Partly Cloudy
3:55 AM 51.8 °F 51.8 °F 100% 30.08 in 0.8 mi Calm Calm - N/A   Scattered Clouds
4:05 AM 53.6 °F 51.8 °F 94% 30.09 in 1.0 mi Calm Calm - N/A   Mostly Cloudy
4:08 AM 53.6 °F 51.8 °F 94% 30.09 in 3.0 mi Calm Calm - N/A   Mostly Cloudy
4:51 AM 53.1 °F 51.1 °F 93% 30.09 in 1.2 mi Calm Calm - N/A   Scattered Clouds
5:08 AM 51.8 °F 50.0 °F 94% 30.10 in 1.5 mi Calm Calm - N/A   Scattered Clouds
5:14 AM 51.8 °F 50.0 °F 94% 30.10 in 0.8 mi Calm Calm - N/A   Mostly Cloudy
5:51 AM 51.1 °F 48.9 °F 92% 30.12 in 1.0 mi Calm Calm - N/A   Mostly Cloudy
6:01 AM 50.0 °F 48.2 °F 94% 30.12 in 0.5 mi Calm Calm - N/A Fog Fog
6:10 AM 50.0 °F 48.2 °F 94% 30.12 in 0.2 mi Calm Calm - N/A Fog Fog
6:51 AM 51.1 °F 50.0 °F 96% 30.14 in 0.2 mi Calm Calm - N/A Fog Fog
7:08 AM 51.8 °F 51.8 °F 100% 30.14 in 0.5 mi Calm Calm - N/A Fog Fog
7:26 AM 53.6 °F 51.8 °F 94% 30.14 in 0.2 mi Calm Calm - N/A Fog Fog
7:51 AM 54.0 °F 53.1 °F 97% 30.15 in 0.2 mi Calm Calm - N/A Fog Fog
8:09 AM 55.4 °F 53.6 °F 94% 30.15 in 1.2 mi Calm Calm - N/A   Mostly Cloudy
8:12 AM 55.4 °F 53.6 °F 94% 30.15 in 3.0 mi Calm Calm - N/A   Mostly Cloudy
8:23 AM 55.4 °F 53.6 °F 94% 30.15 in 10.0 mi Calm Calm - N/A   Scattered Clouds
8:51 AM 61.0 °F 55.0 °F 81% 30.15 in 10.0 mi Calm Calm - N/A   Clear
9:51 AM 66.0 °F 55.9 °F 70% 30.14 in 10.0 mi Calm Calm - N/A   Clear
10:51 AM 70.0 °F 55.0 °F 59% 30.14 in 10.0 mi Calm Calm - N/A   Clear
11:51 AM 73.9 °F 53.1 °F 48% 30.12 in 10.0 mi Calm Calm - N/A   Clear
12:51 PM 77.0 °F 52.0 °F 42% 30.10 in 10.0 mi WNW 5.8 mph - N/A   Clear
1:51 PM 75.9 °F 52.0 °F 43% 30.09 in 10.0 mi Calm Calm - N/A   Overcast
2:51 PM 75.0 °F 54.0 °F 48% 30.09 in 10.0 mi Variable 3.5 mph - N/A   Overcast
3:51 PM 66.0 °F 55.0 °F 68% 30.11 in 10.0 mi Calm Calm - 0.01 in   Overcast
4:51 PM 64.4 °F 57.2 °F 77% 30.12 in 10.0 mi SSW 8.1 mph - N/A   Mostly Cloudy
5:51 PM 64.0 °F 57.9 °F 80% 30.12 in 10.0 mi SSW 3.5 mph - N/A   Mostly Cloudy
6:51 PM 66.9 °F 59.0 °F 76% 30.13 in 10.0 mi Variable 3.5 mph - N/A   Overcast
7:51 PM 66.0 °F 60.1 °F 81% 30.14 in 10.0 mi SSE 4.6 mph - N/A   Overcast
8:51 PM 64.0 °F 57.9 °F 80% 30.14 in 10.0 mi SSE 3.5 mph - N/A   Overcast
9:51 PM 63.0 °F 60.1 °F 90% 30.15 in 10.0 mi SE 3.5 mph - N/A   Mostly Cloudy
10:51 PM 62.1 °F 57.9 °F 86% 30.15 in 10.0 mi SSE 5.8 mph - N/A   Clear
11:51 PM 61.0 °F 57.9 °F 90% 30.14 in 10.0 mi ESE 4.6 mph - N/A   Clear